Other Surface Observations
Issued by NWS

Current Version | Previous Version | Text Only | Print | Product List | Glossary On
Versions: 1 2 3 4 5 6 7 8 9 10 11 12 13 14 15 16 17 18 19 20 21 22 23 24 25 26 27 28 29 30 31 32 33 34 35 36 37 38 39 40 41 42 43 44 45 46 47 48 49 50
354
SXUS52 KTAE 252018
OSOTAE
OSOTAE
North Florida/South Alabama/Southwest Georgia Weather Roundup
National Weather Service Tallahassee Florida
300 PM EST SAT FEB 25 2017

Note: "fair" indicates few or no clouds below 12,000 feet with no
significant weather and/or obstructions to visibility.

!FLZ017-115-028-034-025-252100
...North Florida...

CITY           SKY/WX    TMP DP  RH WIND       PRES   REMARKS
TALLAHASSEE    MOSUNNY   81  51  35 NW15G22   29.87S
APALACHICOLA   MOSUNNY   81  55  40 N10       29.88S
PERRY          MOSUNNY   78  64  62 SW9G16    29.87F
CROSS CITY     PTSUNNY   79  61  53 W12       29.88F
JACKSONVILLE   PTSUNNY   80  58  46 W16       29.83S
$$

!FLZ112-006-005-002-011-252100
...Florida Panhandle...

CITY           SKY/WX    TMP DP  RH WIND       PRES   REMARKS
MARIANNA       SUNNY     78  29  16 NW15G22   29.89F
BONIFAY        FAIR      77  28  16 N12G18    29.92S
PANAMA CITY NW FAIR      77  39  25 NW12G22   29.90S
TYNDALL AFB    SUNNY     79  40  24 NW12      29.90F
TYND DRONE APT FAIR      79  38  23 NW12      29.90F
DE FUNIAK SPR  FAIR      74  26  16 NW13G21   29.94R
EGLIN AFB      SUNNY     78  22  12 NW15      29.92F
DESTIN         SUNNY     79  32  18 N10       29.93S
HURLBURT       SUNNY     76 -30   1 N12G20    29.92S
CRESTVIEW      SUNNY     76  26  15 N12G21    29.94F
PENSACOLA      SUNNY     76  27  16 NW21G26   29.95S
$$

!ALZ063-066-252100
...South Alabama...

CITY           SKY/WX    TMP DP  RH WIND       PRES   REMARKS
DOTHAN         SUNNY     75  29  18 NW18      29.93F
OZARK CAIRNS   SUNNY     74  25  16 NW14G20   29.91S
FT RUCKER HELI SUNNY     73  24  16 W9G17     29.91S
RUCKER HELI 3  FAIR      73  22  15 SW14G21   29.91S
RUCKER HELI 2  FAIR      74  20  13 N14G21    29.90S
FLORALA APT    SUNNY     73  25  16 NW7       29.95S
ANDALUSIA      SUNNY     75  24  15 N17G23    29.93F
TROY           SUNNY     69  25  19 NW16G22   29.94S
EUFALA         FAIR      73  21  14 NW10G18   29.89S
MOBILE         MOSUNNY   71  31  22 NW8G18    29.99F
$$

!GAZ120>161-252100
...Southwest and South Central Georgia...

CITY           SKY/WX    TMP DP  RH WIND       PRES   REMARKS
THOMASVILLE    FAIR      79  41  25 W15G25    29.88S
BAINBRIDGE     SUNNY     77  34  20 NW14G20   29.89S
MOODY AFB      MOSUNNY   78  55  44 W16       29.83S
VALDOSTA       MOSUNNY   79  58  48 W8G17     29.84F
MOULTRIE       SUNNY     77  45  31 NW9       29.87F
BLAKELY        SUNNY     77  21  12 CALM      29.89F
ALBANY         SUNNY     76  33  21 W10G21    29.89F
TIFTON         FAIR      76  34  21 W14       29.85S
FITZGERALD     FAIR      77  37  23 W10G20    29.86S
CORDELE        FAIR      78  21  12 NW16G22   29.86F
AMERICUS       FAIR      72  19  14 W14G21    29.87F
HOMERVILLE     PTSUNNY  N/A N/A N/A W14G20    29.84F
$$

!GMZ750-755-770-775-252100
...Coastal and Buoy Obs...

STATION/POSITION TIME  TEMP    WIND        PRES    VSBY  WAVE
                       AIR SEA DIR/SP/G                  HT/PER
                 (UTC) (F)     (DEG/KT/KT) (MB)    (MI)  (FT/S)
KEATON BEACH     2000   69     210/ 10/ 12 1011.9F
CEDAR KEY        2000   70     230/  6/  8 1013.1F
C TOWER          2000   68     270/ 13/ 14 1013.1F
APALACHICOLA BUO 1950   71 71  300/  4/  6 1013.0F         1/ 3
PANAMA CITY BUOY 1950   70 71              1014.0F         3/ 5
MOBILE BUOY      NOT AVBL
ORANGE BCH AL BU 1950   68 69  310/ 14/ 17 1014.5F         1/ 3
$$




USA.gov is the U.S. government's official web portal to all federal, state and local government web resources and services.